GW3520 Weather Reports


time (UTC)temp
F
wind
direction
speed
knots
gust
knots
rain 1hr
in
rain 24hr
in
rain mn
in
humidity
%
barometer
mb
20260906212550 95 141 0.9 1.7 0.00 0.00 0.00 31 1017.5
20260906212046 93 185 0.0 5.2 0.00 0.00 0.00 33 1017.6
20260906211545 93 204 0.0 0.9 0.00 0.00 0.00 34 1017.2
20260906211040 92 187 0.0 5.2 0.00 0.00 0.00 33 1017.3
20260906210536 94 210 0.9 1.7 0.00 0.00 0.00 35 1017.7
20260906210036 92 211 0.0 0.9 0.00 0.00 0.00 35 1017.5
20260906205531 92 191 0.0 1.7 0.00 0.00 0.00 35 1017.5
20260906205027 91 186 1.7 2.6 0.00 0.00 0.00 33 1017.6
20260906204527 92 191 1.7 3.5 0.00 0.00 0.00 37 1017.7
20260906204027 91 94 0.0 1.7 0.00 0.00 0.00 36 1017.8
20260906203526 91 179 0.9 1.7 0.00 0.00 0.00 36 1017.7
20260906203021 89 184 0.0 2.6 0.00 0.00 0.00 36 1017.9
20260906202518 89 99 3.5 5.2 0.00 0.00 0.00 37 1018.0
20260906202013 90 205 2.6 5.2 0.00 0.00 0.00 38 1017.9
20260906201507 90 216 0.0 1.7 0.00 0.00 0.00 40 1018.0
20260906201007 90 181 0.9 2.6 0.00 0.00 0.00 39 1018.3
20260906200503 88 209 0.9 3.5 0.00 0.00 0.00 39 1018.1
20260906195958 89 112 1.7 3.5 0.00 0.00 0.00 39 1018.4
20260906195454 88 91 0.0 2.6 0.00 0.00 0.00 39 1018.5
20260906194950 88 180 0.0 2.6 0.00 0.00 0.00 40 1018.6
20260906194445 91 147 2.6 3.5 0.00 0.00 0.00 40 1018.3
20260906193941 89 177 0.0 0.9 0.00 0.00 0.00 40 1018.4
20260906193436 89 199 0.9 2.6 0.00 0.00 0.00 42 1018.5
20260906192931 89 190 0.9 1.7 0.00 0.00 0.00 42 1018.4
20260906192431 88 207 0.9 1.7 0.00 0.00 0.00 39 1018.5
20260906191931 89 148 0.9 2.6 0.00 0.00 0.00 41 1018.6
20260906191426 88 184 0.9 1.7 0.00 0.00 0.00 42 1018.5
20260906190925 88 192 0.9 2.6 0.00 0.00 0.00 44 1018.8
20260906190424 87 202 1.7 2.6 0.00 0.00 0.00 42 1019.0
20260906185919 86 212 0.0 1.7 0.00 0.00 0.00 43 1019.1
20260906185418 85 100 1.7 1.7 0.00 0.00 0.00 43 1019.4
20260906184917 85 166 1.7 2.6 0.00 0.00 0.00 43 1019.4
20260906184413 86 126 0.9 6.1 0.00 0.00 0.00 42 1019.4
20260906183908 87 191 0.9 1.7 0.00 0.00 0.00 42 1019.4
20260906183404 86 221 0.9 2.6 0.00 0.00 0.00 41 1019.6
20260906182859 86 200 0.0 2.6 0.00 0.00 0.00 44 1019.9
20260906182354 86 184 0.9 1.7 0.00 0.00 0.00 45 1020.0
20260906181850 84 139 0.0 0.9 0.00 0.00 0.00 48 1019.8
20260906181346 82 210 0.0 1.7 0.00 0.00 0.00 50 1020.1
20260906180842 82 204 0.0 2.6 0.00 0.00 0.00 50 1020.3
20260906180336 81 211 0.0 1.7 0.00 0.00 0.00 52 1020.2
20260906175833 82 218 0.0 1.7 0.00 0.00 0.00 50 1020.5
20260906175328 81 179 0.9 3.5 0.00 0.00 0.00 53 1020.6
20260906174828 84 77 1.7 3.5 0.00 0.00 0.00 48 1020.7
20260906174321 84 170 0.0 1.7 0.00 0.00 0.00 47 1020.6
20260906173816 83 128 0.0 5.2 0.00 0.00 0.00 49 1020.8
20260906173312 81 212 1.7 1.7 0.00 0.00 0.00 52 1020.9
20260906172811 81 192 0.9 0.9 0.00 0.00 0.00 52 1020.8
20260906172307 81 213 2.6 5.2 0.00 0.00 0.00 53 1020.9
20260906171802 80 216 0.0 1.7 0.00 0.00 0.00 53 1021.3
20260906171257 80 225 0.0 0.9 0.00 0.00 0.00 54 1021.3
20260906170753 79 210 1.7 2.6 0.00 0.00 0.00 55 1021.4
20260906170248 80 186 0.9 3.5 0.00 0.00 0.00 53 1021.5
20260906165744 79 211 2.6 5.2 0.00 0.00 0.00 56 1021.3
20260906165243 80 111 0.9 3.5 0.00 0.00 0.00 52 1021.5
20260906164738 79 114 0.0 1.7 0.00 0.00 0.00 53 1021.3
20260906164233 80 104 0.9 2.6 0.00 0.00 0.00 53 1021.0
20260906163729 81 194 0.9 1.7 0.00 0.00 0.00 53 1021.3
20260906163225 80 204 0.0 0.9 0.00 0.00 0.00 53 1021.0
20260906162721 80 177 0.0 0.9 0.00 0.00 0.00 53 1021.3
20260906162216 79 148 0.0 1.7 0.00 0.00 0.00 55 1021.3
20260906161711 78 102 0.9 1.7 0.00 0.00 0.00 55 1021.1
20260906161210 79 200 0.0 1.7 0.00 0.00 0.00 55 1021.1
20260906160709 78 179 0.9 1.7 0.00 0.00 0.00 55 1021.6
20260906160208 78 116 0.9 2.6 0.00 0.00 0.00 57 1021.3
20260906155706 78 170 0.9 1.7 0.00 0.00 0.00 57 1021.4
20260906155202 77 194 0.0 0.9 0.00 0.00 0.00 59 1021.5
20260906154657 77 176 0.9 1.7 0.00 0.00 0.00 57 1021.3
20260906154157 76 111 2.6 3.5 0.00 0.00 0.00 58 1021.6
20260906153655 76 126 0.9 1.7 0.00 0.00 0.00 58 1021.5
20260906153150 76 213 0.0 0.0 0.00 0.00 0.00 59 1021.6
20260906152645 77 171 0.0 1.7 0.00 0.00 0.00 57 1021.6
20260906152139 76 179 0.0 0.0 0.00 0.00 0.00 60 1021.5
20260906151634 75 183 0.0 0.9 0.00 0.00 0.00 60 1022.0
20260906151130 74 197 0.0 0.9 0.00 0.00 0.00 62 1021.7
20260906150625 73 174 0.0 0.9 0.00 0.00 0.00 64 1021.7
20260906150120 70 205 0.0 1.7 0.00 0.00 0.00 69 1021.5
20260906145619 71 332 1.7 2.6 0.00 0.00 0.00 68 1021.6
20260906145114 70 199 0.0 0.0 0.00 0.00 0.00 69 1021.8
20260906144608 69 194 0.0 1.7 0.00 0.00 0.00 73 1021.7
20260906144103 67 221 0.0 0.0 0.00 0.00 0.00 76 1021.8
20260906143558 67 214 0.0 0.0 0.00 0.00 0.00 78 1021.8
20260906143055 67 210 0.0 0.0 0.00 0.00 0.00 77 1021.5
20260906142553 67 268 0.0 0.0 0.00 0.00 0.00 76 1021.4
20260906142049 68 212 0.0 0.9 0.00 0.00 0.00 76 1021.5
20260906141548 68 276 1.7 1.7 0.00 0.00 0.00 75 1021.6
20260906141044 67 205 0.9 1.7 0.00 0.00 0.00 78 1021.8
20260906140543 65 218 0.0 0.0 0.00 0.00 0.00 80 1021.6
20260906140037 64 215 0.0 0.0 0.00 0.00 0.00 83 1021.6
20260906135534 64 212 0.0 0.0 0.00 0.00 0.00 85 1021.3
20260906135031 62 220 0.0 0.0 0.00 0.00 0.00 87 1021.6
20260906134525 61 227 0.0 0.0 0.00 0.00 0.00 90 1021.5
20260906134020 60 213 0.0 0.0 0.00 0.00 0.00 91 1021.8
20260906133516 60 198 0.0 0.0 0.00 0.00 0.00 91 1021.5
20260906133011 59 197 0.0 0.0 0.00 0.00 0.00 91 1021.4
20260906132507 59 197 0.0 0.0 0.00 0.00 0.00 91 1021.5
20260906132001 59 197 0.0 0.0 0.00 0.00 0.00 92 1021.1
20260906131457 59 197 0.0 0.0 0.00 0.00 0.00 92 1021.4
20260906130952 59 203 0.0 0.0 0.00 0.00 0.00 93 1021.4
20260906130451 58 197 0.0 0.0 0.00 0.00 0.00 93 1021.1
20260906125946 58 213 0.0 0.0 0.00 0.00 0.00 93 1021.4
20260906125444 57 197 0.0 0.0 0.00 0.00 0.00 93 1021.4
20260906124943 57 211 0.0 0.0 0.00 0.00 0.00 92 1021.4
20260906124439 57 218 0.0 0.0 0.00 0.00 0.00 92 1021.1
20260906123939 57 204 0.0 0.0 0.00 0.00 0.00 92 1021.5
20260906123439 57 212 0.0 0.0 0.00 0.00 0.00 92 1021.3
20260906122933 58 218 0.0 0.0 0.00 0.00 0.00 92 1021.5
20260906122428 58 195 0.0 0.0 0.00 0.00 0.00 92 1021.5
20260906121925 58 190 0.0 0.0 0.00 0.00 0.00 91 1021.4
20260906121421 57 217 0.0 0.0 0.00 0.00 0.00 90 1021.5
20260906120917 58 224 0.0 0.0 0.00 0.00 0.00 90 1021.3
20260906120412 59 247 0.0 0.0 0.00 0.00 0.00 90 1021.0
20260906115908 59 211 0.0 0.0 0.00 0.00 0.00 90 1021.1
20260906115404 59 216 0.0 0.0 0.00 0.00 0.00 91 1021.5
20260906114903 59 205 0.0 0.0 0.00 0.00 0.00 90 1021.1
20260906114358 59 205 0.0 0.0 0.00 0.00 0.00 90 1021.1
20260906113854 59 205 0.0 0.0 0.00 0.00 0.00 90 1021.3
20260906113352 59 213 0.0 0.0 0.00 0.00 0.00 90 1021.0
20260906112848 59 204 0.0 0.0 0.00 0.00 0.00 90 1021.0
20260906112343 59 213 0.0 0.0 0.00 0.00 0.00 89 1021.1
20260906111838 59 213 0.0 0.0 0.00 0.00 0.00 89 1021.3
20260906111338 59 251 0.0 0.0 0.00 0.00 0.00 89 1021.0
20260906110833 60 239 0.0 0.0 0.00 0.00 0.00 89 1021.3
20260906110329 60 237 0.0 0.0 0.00 0.00 0.00 89 1021.1
20260906105827 60 182 0.0 0.0 0.00 0.00 0.00 87 1020.9
20260906105323 61 183 0.0 0.0 0.00 0.00 0.00 87 1020.8
20260906104819 61 182 0.0 0.0 0.00 0.00 0.00 88 1020.9
20260906104318 61 196 0.0 0.0 0.00 0.00 0.00 87 1020.9
20260906103816 62 196 0.0 0.0 0.00 0.00 0.00 87 1021.0
20260906103315 62 198 0.0 0.0 0.00 0.00 0.00 87 1020.9
20260906102811 62 198 0.0 0.0 0.00 0.00 0.00 87 1021.1
20260906102310 62 198 0.0 0.0 0.00 0.00 0.00 87 1021.0
20260906101805 62 198 0.0 0.0 0.00 0.00 0.00 86 1021.1
20260906101300 62 198 0.0 0.0 0.00 0.00 0.00 84 1021.1
20260906100756 62 190 0.0 0.0 0.00 0.00 0.00 83 1020.9
20260906100255 62 190 0.0 0.0 0.00 0.00 0.00 81 1021.3
20260906095750 63 190 0.0 0.0 0.00 0.00 0.00 80 1021.3
20260906095245 64 190 0.0 0.0 0.00 0.00 0.00 80 1021.1
20260906094744 64 195 0.0 0.0 0.00 0.00 0.00 80 1021.0
20260906094240 64 196 0.0 0.0 0.00 0.00 0.00 79 1020.8
20260906093736 64 196 0.0 0.0 0.00 0.00 0.00 79 1020.8
20260906093231 64 196 0.0 0.0 0.00 0.00 0.00 78 1020.7
20260906092727 65 196 0.0 0.0 0.00 0.00 0.00 78 1020.5
20260906092226 65 196 0.0 0.0 0.00 0.00 0.00 77 1020.3
20260906091722 65 196 0.0 0.0 0.00 0.00 0.00 77 1020.5
20260906091218 65 196 0.0 0.0 0.00 0.00 0.00 76 1020.3
20260906090715 66 196 0.0 0.0 0.00 0.00 0.00 75 1020.5
20260906090214 66 196 0.0 0.0 0.00 0.00 0.00 75 1020.5
20260906085713 66 175 0.0 0.0 0.00 0.00 0.00 74 1020.3
20260906085212 66 213 0.0 0.0 0.00 0.00 0.00 74 1020.3
20260906084706 66 187 0.0 0.0 0.00 0.00 0.00 74 1020.2
20260906084201 65 204 0.0 0.0 0.00 0.00 0.00 75 1020.1
20260906083656 65 192 0.0 0.0 0.00 0.00 0.00 75 1020.1
20260906083151 65 200 0.0 0.0 0.00 0.00 0.00 75 1020.1
20260906082646 65 197 0.0 0.0 0.00 0.00 0.00 74 1020.6
20260906082142 65 210 0.0 0.0 0.00 0.00 0.00 73 1020.6
20260906081637 66 211 0.0 0.0 0.00 0.00 0.00 73 1020.6
20260906081132 66 286 0.0 0.9 0.00 0.00 0.00 73 1020.6
20260906080628 66 189 0.0 0.9 0.00 0.00 0.00 71 1020.7
20260906080124 66 176 0.0 0.0 0.00 0.00 0.00 71 1020.5
20260906075619 66 200 0.0 0.0 0.00 0.00 0.00 69 1020.3
20260906075113 66 182 0.0 1.7 0.00 0.00 0.00 69 1020.7
20260906074609 66 329 0.9 2.6 0.00 0.00 0.00 69 1020.5
20260906074107 66 341 1.7 3.5 0.00 0.00 0.00 70 1020.5
20260906073602 66 229 0.0 1.7 0.00 0.00 0.00 71 1020.6
20260906073058 66 194 0.0 0.9 0.00 0.00 0.00 70 1020.3
20260906072553 66 205 0.0 0.9 0.00 0.00 0.00 70 1020.6
20260906072049 66 316 0.0 1.7 0.00 0.00 0.00 70 1020.6
20260906071545 65 349 1.7 3.5 0.00 0.00 0.00 71 1020.5
20260906071040 65 219 0.9 1.7 0.00 0.00 0.00 72 1020.5
20260906070536 65 225 0.0 0.0 0.00 0.00 0.00 70 1020.9
20260906070032 65 186 0.0 0.0 0.00 0.00 0.00 69 1020.9
20260906065531 65 210 0.9 1.7 0.00 0.00 0.00 68 1020.8
20260906065027 65 208 0.0 0.9 0.00 0.00 0.00 70 1020.8
20260906064522 66 339 1.7 1.7 0.00 0.00 0.00 69 1020.6
20260906064017 66 250 0.9 1.7 0.00 0.00 0.00 66 1020.7
20260906063512 67 210 0.0 0.0 0.00 0.00 0.00 63 1020.7
20260906063002 68 221 0.0 0.0 0.00 0.00 0.00 61 1020.9
20260906062457 68 197 0.0 0.9 0.00 0.00 0.00 62 1020.8
20260906061952 68 186 0.0 0.0 0.00 0.00 0.00 64 1020.8
20260906061447 67 248 0.0 0.0 0.00 0.00 0.00 63 1020.3
20260906060942 67 196 0.0 1.7 0.00 0.00 0.00 65 1020.6
20260906060439 66 264 0.9 1.7 0.00 0.00 0.00 66 1020.5
20260906055935 67 187 0.0 0.0 0.00 0.00 0.00 64 1020.3
20260906055431 67 174 0.0 0.0 0.00 0.00 0.00 63 1020.3
20260906054926 67 255 0.9 1.7 0.00 0.00 0.00 61 1020.3
20260906054421 66 191 0.0 0.0 0.00 0.00 0.00 63 1020.3
20260906053917 67 191 0.0 0.0 0.00 0.00 0.00 63 1020.2
20260906053412 67 191 0.0 0.0 0.00 0.00 0.00 61 1020.3
20260906052908 68 196 0.0 0.0 0.00 0.00 0.00 60 1020.2
20260906052404 68 194 0.0 0.0 0.00 0.00 0.00 59 1020.3
20260906051901 69 216 0.0 0.9 0.00 0.00 0.00 58 1020.1
20260906051401 69 145 1.7 1.7 0.00 0.00 0.00 57 1020.2
20260906050856 69 172 0.9 0.9 0.00 0.00 0.00 55 1020.0
20260906050350 70 201 0.0 1.7 0.00 0.00 0.00 53 1019.9
20260906045849 69 189 1.7 1.7 0.00 0.00 0.00 52 1019.9
20260906045344 68 204 0.9 0.9 0.00 0.00 0.00 53 1019.8
20260906044840 67 202 0.0 0.0 0.00 0.00 0.00 51 1019.9
20260906044340 68 201 0.0 0.0 0.00 0.00 0.00 49 1019.9
20260906043836 69 202 0.0 0.0 0.00 0.00 0.00 48 1019.5
20260906043332 69 201 0.0 0.9 0.00 0.00 0.00 47 1019.4
20260906042827 71 184 0.9 0.9 0.00 0.00 0.00 45 1019.4
20260906042325 69 309 0.9 2.6 0.00 0.00 0.00 45 1019.3
20260906041821 68 192 0.0 0.0 0.00 0.00 0.00 48 1019.3
20260906041317 69 217 0.0 0.0 0.00 0.00 0.00 50 1019.5
20260906040812 70 165 0.0 0.9 0.00 0.00 0.00 48 1019.5
20260906040307 71 186 0.0 0.9 0.00 0.00 0.00 46 1019.3
20260906035802 71 196 0.0 0.9 0.00 0.00 0.00 46 1019.2
20260906035258 73 336 1.7 3.5 0.00 0.00 0.00 44 1019.1
20260906034757 74 348 1.7 6.1 0.00 0.00 0.00 42 1019.3
20260906034252 72 345 4.3 7.8 0.00 0.00 0.00 43 1018.8
20260906033748 72 326 1.7 3.5 0.00 0.00 0.00 45 1019.1
20260906033247 72 0 6.1 7.0 0.00 0.00 0.00 43 1019.1
20260906032744 72 332 1.7 2.6 0.00 0.00 0.00 46 1019.2
20260906032244 73 347 2.6 2.6 0.00 0.00 0.00 46 1019.0
20260906031739 73 281 0.9 1.7 0.00 0.00 0.00 45 1019.0
20260906031235 72 193 0.0 1.7 0.00 0.00 0.00 45 1019.0
20260906030735 72 278 0.9 2.6 0.00 0.00 0.00 47 1018.8
20260906030230 72 338 2.6 2.6 0.00 0.00 0.00 45 1018.8
20260906025729 71 195 0.0 0.0 0.00 0.00 0.00 45 1019.2
20260906025229 72 176 0.0 0.9 0.00 0.00 0.00 44 1018.8
20260906024728 72 195 0.0 0.0 0.00 0.00 0.00 44 1018.8
20260906024227 72 210 0.0 0.9 0.00 0.00 0.00 44 1018.7
20260906023723 73 199 0.0 0.9 0.00 0.00 0.00 43 1018.7
20260906023218 74 196 0.0 0.9 0.00 0.00 0.00 42 1018.8
20260906022714 75 218 0.0 2.6 0.00 0.00 0.00 42 1018.5
20260906022209 74 324 1.7 2.6 0.00 0.00 0.00 41 1018.5
20260906021705 73 335 1.7 2.6 0.00 0.00 0.00 43 1018.6
20260906021203 73 204 0.9 1.7 0.00 0.00 0.00 45 1018.7
20260906020659 75 196 0.0 0.0 0.00 0.00 0.00 42 1018.5
20260906020153 76 206 0.0 0.9 0.00 0.00 0.00 41 1018.1
20260906015647 77 210 0.0 0.0 0.00 0.00 0.00 41 1018.1
20260906015146 77 271 0.9 1.7 0.00 0.00 0.00 39 1018.1
20260906014641 78 329 1.7 3.5 0.00 0.00 0.00 39 1018.1
20260906014137 79 339 2.6 3.5 0.00 0.00 0.00 37 1018.0
20260906013633 79 352 1.7 5.2 0.00 0.00 0.00 37 1017.9
20260906013128 79 287 2.6 3.5 0.00 0.00 0.00 38 1018.0
20260906012627 79 311 2.6 6.1 0.00 0.00 0.00 36 1017.8
20260906012122 78 357 3.5 6.1 0.00 0.00 0.00 38 1018.3
20260906011619 79 348 5.2 6.1 0.00 0.00 0.00 38 1018.3
20260906011118 80 332 4.3 6.1 0.00 0.00 0.00 37 1018.0
20260906010614 80 335 3.5 7.0 0.00 0.00 0.00 36 1017.9
20260906010110 80 308 4.3 6.1 0.00 0.00 0.00 37 1017.9
20260906005604 80 346 5.2 7.8 0.00 0.00 0.00 35 1018.4
20260906005103 81 0 6.1 8.7 0.00 0.00 0.00 34 1018.0
20260906004602 82 354 5.2 7.8 0.00 0.00 0.00 34 1018.0
20260906004057 82 2 7.0 8.7 0.00 0.00 0.00 32 1018.3
20260906003552 83 355 4.3 7.0 0.00 0.00 0.00 34 1018.0
20260906003048 83 332 5.2 8.7 0.00 0.00 0.00 31 1017.9
20260906002543 84 341 3.5 7.8 0.00 0.00 0.00 31 1018.0
20260906002038 86 350 6.1 8.7 0.00 0.00 0.00 29 1018.0
20260906001533 88 4 6.1 7.8 0.00 0.00 0.00 27 1017.9
20260906001027 88 323 2.6 3.5 0.00 0.00 0.00 27 1017.8
20260906000524 88 322 1.7 2.6 0.00 0.00 0.00 29 1017.8
20260906000024 89 185 0.0 0.9 0.00 0.00 0.00 29 1017.8
20260905235517 89 191 0.0 0.0 0.00 0.00 0.00 29 1017.9
20260905235013 90 235 0.9 0.9 0.00 0.00 0.00 32 1017.8
20260905234508 90 186 0.0 0.0 0.00 0.00 0.00 26 1017.8
20260905234003 90 201 0.0 0.0 0.00 0.00 0.00 27 1017.7
20260905233458 90 201 0.0 0.0 0.00 0.00 0.00 26 1017.6
20260905232956 91 201 0.0 0.0 0.00 0.00 0.00 24 1017.7
20260905232453 92 189 0.0 0.0 0.00 0.00 0.00 30 1017.5
20260905231949 92 189 0.0 0.0 0.00 0.00 0.00 24 1017.5
20260905231444 92 138 0.0 0.9 0.00 0.00 0.00 23 1017.5
20260905230940 92 192 0.0 0.9 0.00 0.00 0.00 23 1017.5
20260905230439 93 146 0.0 1.7 0.00 0.00 0.00 23 1017.5
20260905225937 93 123 0.0 1.7 0.00 0.00 0.00 24 1017.1
20260905225432 93 157 0.9 2.6 0.00 0.00 0.00 24 1017.1
20260905224927 93 147 1.7 3.5 0.00 0.00 0.00 24 1017.2
20260905224423 94 140 0.0 2.6 0.00 0.00 0.00 23 1017.1
20260905223922 95 177 0.9 1.7 0.00 0.00 0.00 22 1017.1
20260905223420 98 157 1.7 2.6 0.00 0.00 0.00 22 1017.1
20260905222915 100 258 0.9 1.7 0.00 0.00 0.00 19 1017.1
20260905222414 97 220 0.9 2.6 0.00 0.00 0.00 20 1017.1
20260905221910 97 191 0.9 2.6 0.00 0.00 0.00 20 1017.1
20260905221407 97 206 0.9 1.7 0.00 0.00 0.00 22 1017.2
20260905220902 97 151 0.9 1.7 0.00 0.00 0.00 20 1017.3
20260905220358 96 202 1.7 1.7 0.00 0.00 0.00 21 1017.3
20260905215857 96 128 0.0 2.6 0.00 0.00 0.00 20 1017.5
20260905215353 97 170 0.9 5.2 0.00 0.00 0.00 20 1017.3
20260905214849 97 111 2.6 2.6 0.00 0.00 0.00 20 1017.3
20260905214344 97 156 1.7 5.2 0.00 0.00 0.00 20 1017.7
20260905213839 97 185 0.0 1.7 0.00 0.00 0.00 20 1017.8
20260905213336 99 85 1.7 2.6 0.00 0.00 0.00 19 1017.8
20260905212835 100 59 3.5 3.5 0.00 0.00 0.00 19 1017.9